Time[GMT],salinity[psu](20m),sigma_t[kg/m^3](20m),conductivity[msiemens/cm](20m),temperature[C](20m)
2018-10-01 16:00,31.958,23.808,38.793,14.15
2018-10-01 17:00,31.917,23.778,38.743,14.14
2018-10-01 18:00,32.303,24.059,39.234,14.22
2018-10-01 19:00,32.332,24.111,39.136,14.08
2018-10-01 20:00,32.336,24.136,39.043,13.97
2018-10-01 21:00,32.281,24.055,39.154,14.16
2018-10-01 22:00,32.297,24.080,39.115,14.09
2018-10-01 23:00,32.192,23.983,39.072,14.17
2018-10-02 00:00,32.044,23.841,39.033,14.31
2018-10-02 01:00,31.759,23.357,39.841,15.55
2018-10-02 02:00,31.778,23.387,39.799,15.48
2018-10-02 03:00,31.796,23.396,39.838,15.50
2018-10-02 04:00,31.792,23.393,39.838,15.50
2018-10-02 05:00,31.837,23.530,39.453,15.02
2018-10-02 06:00,32.201,23.942,39.291,14.40
2018-10-02 07:00,32.197,23.943,39.267,14.38
2018-10-02 08:00,32.216,23.936,39.383,14.49
2018-10-02 09:00,32.304,24.155,38.814,13.76
2018-10-02 11:00,32.337,24.208,38.730,13.62
2018-10-02 12:00,32.296,24.134,38.872,13.83
2018-10-02 13:00,31.843,23.469,39.734,15.33
2018-10-02 14:00,31.795,23.416,39.749,15.40
2018-10-02 15:00,31.799,23.417,39.763,15.41
2018-10-02 16:00,31.804,23.426,39.751,15.39
2018-10-02 17:00,31.794,23.410,39.771,15.43
2018-10-02 18:00,31.798,23.414,39.772,15.42
2018-10-02 19:00,32.169,23.878,39.427,14.59
2018-10-02 20:00,32.189,23.958,39.173,14.29
2018-10-02 21:00,32.130,23.851,39.374,14.58
2018-10-02 22:00,32.140,23.932,39.065,14.23
2018-10-02 23:00,32.095,23.910,38.959,14.16
2018-10-03 00:00,32.151,24.056,38.564,13.66
2018-10-03 01:00,32.109,24.051,38.396,13.52
2018-10-03 02:00,32.006,23.770,39.172,14.51
2018-10-03 03:00,31.746,23.389,39.653,15.36
2018-10-03 04:00,31.732,23.375,39.649,15.37
2018-10-03 05:00,31.719,23.358,39.666,15.40
2018-10-03 06:00,31.700,23.338,39.662,15.42
2018-10-03 07:00,31.988,23.712,39.342,14.72
2018-10-03 08:00,31.725,23.360,39.679,15.41
2018-10-03 09:00,31.889,23.597,39.402,14.90
2018-10-03 10:00,32.029,23.891,38.745,14.01
2018-10-03 11:00,32.109,24.030,38.491,13.63
2018-10-03 12:00,32.095,24.001,38.554,13.72
2018-10-03 13:00,32.129,24.071,38.395,13.50
2018-10-03 14:00,32.051,23.852,39.016,14.28
2018-10-03 15:00,32.045,23.842,39.034,14.31
2018-10-03 16:00,31.666,23.328,39.558,15.35
2018-10-03 17:00,31.885,23.575,39.471,14.99
2018-10-03 18:00,31.866,23.560,39.452,14.99
2018-10-03 19:00,31.814,23.476,39.584,15.20
2018-10-03 20:00,31.927,23.615,39.492,14.96
2018-10-03 21:00,31.969,23.658,39.489,14.90
2018-10-03 22:00,32.111,23.827,39.390,14.62
2018-10-03 23:00,32.124,23.830,39.437,14.66
2018-10-04 00:00,32.230,23.956,39.363,14.45
2018-10-04 01:00,32.247,23.984,39.315,14.37
2018-10-04 02:00,32.123,23.899,39.135,14.32
2018-10-04 03:00,32.141,23.884,39.278,14.46
2018-10-04 04:00,32.061,23.787,39.344,14.63
2018-10-04 05:00,31.919,23.623,39.420,14.89
2018-10-04 06:00,31.929,23.632,39.424,14.88
2018-10-04 07:00,32.085,23.856,39.153,14.39
2018-10-04 08:00,32.050,23.814,39.175,14.46
2018-10-04 09:00,32.062,23.837,39.131,14.39
2018-10-04 10:00,32.186,23.959,39.149,14.27
2018-10-04 11:00,32.069,23.832,39.181,14.44
2018-10-04 12:00,32.186,23.908,39.375,14.51
2018-10-04 13:00,32.326,24.063,39.320,14.28
2018-10-04 14:00,32.335,24.091,39.241,14.19
2018-10-04 15:00,32.138,23.819,39.547,14.76
2018-10-04 16:00,32.124,23.823,39.463,14.69
2018-10-04 17:00,32.052,23.761,39.413,14.72
2018-10-04 18:00,32.010,23.725,39.383,14.73
2018-10-04 19:00,32.088,23.799,39.409,14.67
2018-10-04 20:00,32.072,23.791,39.375,14.65
2018-10-04 21:00,32.009,23.735,39.334,14.68
2018-10-04 22:00,32.036,23.761,39.343,14.66
2018-10-04 23:00,32.032,23.765,39.306,14.62
2018-10-05 00:00,32.122,23.846,39.357,14.57
2018-10-05 01:00,32.283,24.009,39.364,14.38
2018-10-05 02:00,32.381,24.094,39.432,14.34
2018-10-05 03:00,32.119,23.837,39.386,14.61
2018-10-05 04:00,32.143,23.853,39.422,14.62
2018-10-05 05:00,32.089,23.804,39.393,14.65
2018-10-05 06:00,32.063,23.717,39.649,14.96
2018-10-05 07:00,32.076,23.726,39.671,14.97
2018-10-05 08:00,32.075,23.727,39.662,14.96
2018-10-05 09:00,32.098,23.790,39.494,14.75
2018-10-05 10:00,32.196,23.898,39.458,14.59
2018-10-05 11:00,32.341,24.099,39.230,14.17
2018-10-05 12:00,32.126,23.819,39.494,14.72
2018-10-05 13:00,32.108,23.815,39.427,14.67
2018-10-05 14:00,31.927,23.659,39.299,14.74
2018-10-05 15:00,31.985,23.716,39.312,14.69
2018-10-05 16:00,31.950,23.680,39.312,14.73
2018-10-05 17:00,31.998,23.722,39.344,14.71
2018-10-05 18:00,31.987,23.712,39.342,14.72
2018-10-05 19:00,31.975,23.705,39.315,14.70
2018-10-05 20:00,32.008,23.733,39.338,14.69
2018-10-05 21:00,32.032,23.757,39.346,14.67
2018-10-05 22:00,32.062,23.794,39.316,14.60
2018-10-05 23:00,32.059,23.785,39.341,14.63
2018-10-06 00:00,32.037,23.759,39.356,14.67
2018-10-06 01:00,32.081,23.809,39.336,14.60
2018-10-06 02:00,32.065,23.804,39.286,14.56
2018-10-06 03:00,32.013,23.739,39.337,14.68
2018-10-06 04:00,32.044,23.786,39.272,14.57
2018-10-06 05:00,32.048,23.791,39.269,14.56
2018-10-06 06:00,31.990,23.730,39.275,14.64
2018-10-06 07:00,31.926,23.648,39.344,14.79
2018-10-06 08:00,31.847,23.561,39.368,14.92
2018-10-06 09:00,31.803,23.524,39.332,14.93
2018-10-06 10:00,31.776,23.508,39.281,14.91
2018-10-06 11:00,32.012,23.760,39.241,14.58
2018-10-06 12:00,32.025,23.783,39.199,14.51
2018-10-06 13:00,31.966,23.700,39.295,14.69
2018-10-06 14:00,32.036,23.797,39.188,14.49
2018-10-06 15:00,32.050,23.828,39.119,14.40
2018-10-06 16:00,32.092,23.915,38.922,14.13
2018-10-06 17:00,32.155,23.940,39.094,14.24
2018-10-06 18:00,32.044,23.810,39.167,14.46
2018-10-06 19:00,31.926,23.656,39.306,14.75
2018-10-06 20:00,31.966,23.700,39.297,14.69
2018-10-06 21:00,31.884,23.595,39.385,14.89
2018-10-06 22:00,31.960,23.679,39.359,14.77
2018-10-06 23:00,32.099,23.859,39.200,14.43
2018-10-07 00:00,32.090,23.851,39.195,14.43
2018-10-07 01:00,32.133,23.893,39.203,14.39
2018-10-07 02:00,32.107,23.866,39.204,14.42
2018-10-07 03:00,32.131,23.893,39.193,14.38
2018-10-07 04:00,32.093,23.855,39.192,14.42
2018-10-07 05:00,32.106,23.863,39.209,14.43
2018-10-07 06:00,32.066,23.848,39.098,14.35
2018-10-07 07:00,32.074,23.862,39.074,14.32
2018-10-07 08:00,32.069,23.855,39.084,14.33
2018-10-07 09:00,32.077,23.868,39.062,14.30
2018-10-07 10:00,32.174,23.936,39.199,14.33
2018-10-07 11:00,32.100,23.872,39.145,14.36
2018-10-07 12:00,31.821,23.585,39.151,14.71
2018-10-07 13:00,32.160,23.924,39.191,14.34
2018-10-07 14:00,32.155,23.917,39.194,14.35
2018-10-07 15:00,32.192,23.950,39.215,14.33
2018-10-07 16:00,32.117,23.879,39.189,14.39
2018-10-07 17:00,32.149,23.909,39.204,14.37
2018-10-07 18:00,32.081,23.854,39.140,14.38
2018-10-07 19:00,32.018,23.783,39.171,14.49
2018-10-07 20:00,31.987,23.745,39.199,14.56
2018-10-07 21:00,31.936,23.698,39.171,14.59
2018-10-07 22:00,31.978,23.744,39.159,14.53
2018-10-07 23:00,31.994,23.758,39.167,14.52
2018-10-08 00:00,31.967,23.731,39.167,14.55
2018-10-08 01:00,32.007,23.792,39.082,14.41
2018-10-08 02:00,32.073,23.875,39.016,14.25
2018-10-08 03:00,32.024,23.782,39.198,14.51
2018-10-08 04:00,32.147,24.022,38.700,13.82
2018-10-08 05:00,32.181,24.093,38.533,13.59
2018-10-08 06:00,32.138,23.999,38.762,13.90
2018-10-08 07:00,32.238,24.074,38.875,13.90
2018-10-08 08:00,32.212,23.993,39.121,14.20
2018-10-08 09:00,31.826,23.547,39.336,14.91
2018-10-08 10:00,31.747,23.478,39.283,14.95
2018-10-08 11:00,31.776,23.521,39.230,14.85
2018-10-08 12:00,32.282,24.037,39.238,14.25
2018-10-08 13:00,32.287,24.054,39.186,14.19
2018-10-08 14:00,32.323,24.074,39.258,14.22
2018-10-08 15:00,32.263,23.981,39.397,14.44
2018-10-08 16:00,32.278,24.007,39.354,14.38
2018-10-08 17:00,32.295,24.070,39.155,14.14
2018-10-08 18:00,32.312,24.092,39.129,14.09
2018-10-08 19:00,32.343,24.172,38.914,13.82
2018-10-08 20:00,32.347,24.163,38.973,13.88
2018-10-08 21:00,32.294,24.069,39.152,14.14
2018-10-08 22:00,32.212,23.977,39.187,14.28
2018-10-08 23:00,32.238,23.965,39.356,14.43
2018-10-09 00:00,32.132,23.884,39.239,14.43
2018-10-09 01:00,32.064,23.830,39.167,14.43
2018-10-09 02:00,32.174,23.912,39.301,14.45
2018-10-09 03:00,32.245,23.969,39.368,14.43
2018-10-09 04:00,32.287,24.101,38.977,13.96
2018-10-09 05:00,32.333,24.154,38.947,13.87
2018-10-09 06:00,32.329,24.210,38.684,13.58
2018-10-09 07:00,32.328,24.186,38.786,13.70
2018-10-09 08:00,32.332,24.186,38.804,13.71
2018-10-09 09:00,32.322,24.211,38.644,13.55
2018-10-09 10:00,32.285,24.099,38.980,13.96
2018-10-09 11:00,32.233,23.995,39.202,14.27
2018-10-09 12:00,32.230,23.995,39.190,14.26
2018-10-09 13:00,32.221,23.979,39.220,14.30
2018-10-09 14:00,32.245,24.020,39.146,14.19
2018-10-09 15:00,32.219,24.042,38.933,13.99
2018-10-09 16:00,32.217,23.970,39.241,14.33
2018-10-09 17:00,32.246,24.055,39.002,14.03
2018-10-09 18:00,32.283,24.198,38.521,13.46
2018-10-09 19:00,32.325,24.258,38.446,13.32
2018-10-09 20:00,32.277,24.117,38.859,13.84
2018-10-09 21:00,32.249,24.052,39.024,14.05
2018-10-09 22:00,32.241,24.009,39.175,14.23
2018-10-09 23:00,32.234,23.995,39.208,14.27
2018-10-10 00:00,32.249,24.031,39.118,14.16
2018-10-10 01:00,32.224,23.988,39.195,14.27
2018-10-10 02:00,32.193,23.938,39.277,14.40
2018-10-10 03:00,32.274,24.041,39.185,14.20
2018-10-10 04:00,32.273,24.046,39.155,14.17
2018-10-10 05:00,32.287,24.127,38.862,13.83
2018-10-10 06:00,32.304,24.212,38.559,13.47
2018-10-10 07:00,32.249,24.137,38.647,13.64
2018-10-10 08:00,32.286,24.135,38.824,13.79
2018-10-10 09:00,32.377,24.401,38.029,12.80
2018-10-10 10:00,32.229,23.993,39.195,14.26
2018-10-10 11:00,32.231,23.994,39.203,14.27
2018-10-10 12:00,32.211,23.960,39.257,14.35
2018-10-10 13:00,32.185,23.922,39.310,14.44
2018-10-10 14:00,32.305,24.059,39.241,14.22
2018-10-10 15:00,32.312,24.081,39.179,14.15
2018-10-10 16:00,32.123,23.868,39.267,14.47
2018-10-10 17:00,32.120,23.864,39.271,14.48
2018-10-10 18:00,32.305,24.123,38.963,13.92
2018-10-10 19:00,32.348,24.328,38.231,13.06
2018-10-10 20:00,32.286,24.142,38.790,13.75
2018-10-10 21:00,32.290,24.137,38.830,13.79
2018-10-10 22:00,32.303,24.156,38.806,13.75
2018-10-10 23:00,32.235,24.044,38.994,14.04
2018-10-11 00:00,32.230,24.036,39.009,14.06
2018-10-11 01:00,32.246,24.023,39.136,14.18
2018-10-11 02:00,32.242,24.015,39.156,14.21
2018-10-11 03:00,32.250,24.012,39.206,14.25
2018-10-11 04:00,32.331,24.090,39.228,14.18
2018-10-11 05:00,32.176,23.920,39.278,14.42
2018-10-11 06:00,32.265,24.028,39.200,14.23
2018-10-11 07:00,32.300,24.146,38.837,13.78
2018-10-11 08:00,32.249,24.022,39.154,14.20
2018-10-11 09:00,32.292,24.098,39.014,13.99
2018-10-11 10:00,32.081,24.004,38.480,13.65
2018-10-11 11:00,32.138,24.023,38.650,13.77
2018-10-11 12:00,32.016,23.945,38.450,13.70
2018-10-11 13:00,32.027,23.916,38.626,13.88
2018-10-11 14:00,32.071,23.889,38.945,14.18
2018-10-11 15:00,32.114,23.887,39.142,14.34
2018-10-11 16:00,32.150,23.892,39.280,14.45
2018-10-11 17:00,32.190,23.963,39.155,14.27
2018-10-11 18:00,32.178,23.984,39.005,14.12
2018-10-11 19:00,32.158,23.969,38.979,14.11
2018-10-11 20:00,32.343,24.220,38.698,13.58
2018-10-11 21:00,32.325,24.184,38.779,13.69
2018-10-11 22:00,32.302,24.151,38.822,13.77
2018-10-11 23:00,32.390,24.209,38.963,13.82
2018-10-12 00:00,32.288,24.117,38.913,13.88
2018-10-12 01:00,32.179,23.958,39.126,14.25
2018-10-12 02:00,32.088,23.851,39.187,14.42
2018-10-12 03:00,32.155,23.921,39.180,14.34
2018-10-12 04:00,32.218,24.009,39.074,14.14
2018-10-12 05:00,32.179,23.963,39.100,14.22
2018-10-12 06:00,32.203,23.989,39.100,14.19
2018-10-12 07:00,32.203,23.972,39.174,14.27
2018-10-12 08:00,32.265,24.021,39.230,14.26
2018-10-12 09:00,32.418,24.293,38.709,13.51
2018-10-12 10:00,32.399,24.343,38.400,13.19
2018-10-12 11:00,32.374,24.200,38.932,13.80
2018-10-12 12:00,32.374,24.208,38.898,13.76
2018-10-12 13:00,32.235,24.000,39.189,14.25
2018-10-12 14:00,32.051,23.779,39.332,14.63
2018-10-12 15:00,32.114,23.827,39.404,14.63
2018-10-12 16:00,32.128,23.842,39.400,14.61
2018-10-12 17:00,32.248,24.009,39.213,14.26
2018-10-12 18:00,32.172,23.896,39.363,14.52
2018-10-12 19:00,32.165,23.907,39.284,14.44
2018-10-12 20:00,32.140,23.856,39.394,14.59
2018-10-12 21:00,32.123,23.837,39.400,14.62
2018-10-12 22:00,32.114,23.827,39.404,14.63
2018-10-12 23:00,32.255,24.011,39.233,14.27
2018-10-13 00:00,32.349,24.151,39.035,13.94
2018-10-13 01:00,32.128,23.839,39.411,14.62
2018-10-13 02:00,32.105,23.819,39.399,14.64
2018-10-13 03:00,32.119,23.836,39.389,14.61
2018-10-13 04:00,32.071,23.798,39.339,14.61
2018-10-13 05:00,32.114,23.834,39.373,14.60
2018-10-13 06:00,32.100,23.826,39.347,14.59
2018-10-13 07:00,32.199,23.941,39.290,14.40
2018-10-13 08:00,32.138,23.872,39.317,14.51
2018-10-13 09:00,32.114,23.849,39.308,14.53
2018-10-13 10:00,32.143,23.873,39.335,14.52
2018-10-13 11:00,32.327,24.115,39.097,14.04
2018-10-13 12:00,32.160,23.888,39.346,14.51
2018-10-13 13:00,32.202,23.937,39.315,14.43
2018-10-13 14:00,32.020,23.771,39.229,14.55
2018-10-13 15:00,31.980,23.746,39.161,14.53
2018-10-13 16:00,32.020,23.767,39.245,14.57
2018-10-13 17:00,32.084,23.808,39.354,14.61
2018-10-13 18:00,32.068,23.806,39.293,14.57
2018-10-13 19:00,32.337,24.132,39.067,13.99
2018-10-13 20:00,32.229,23.985,39.229,14.30
2018-10-13 21:00,32.273,24.042,39.174,14.19
2018-10-13 22:00,32.354,24.157,39.032,13.94
2018-10-13 23:00,32.376,24.195,38.964,13.84
2018-10-14 00:00,32.372,24.189,38.969,13.85
2018-10-14 01:00,32.164,23.905,39.291,14.45
2018-10-14 02:00,32.396,24.230,38.895,13.74
2018-10-14 03:00,32.420,24.272,38.817,13.62
2018-10-14 04:00,32.393,24.219,38.931,13.78
2018-10-14 05:00,32.146,23.941,39.049,14.20
2018-10-14 06:00,32.346,24.158,38.993,13.90
2018-10-14 07:00,32.384,24.209,38.934,13.79
2018-10-14 08:00,32.379,24.227,38.836,13.69
2018-10-14 09:00,32.390,24.262,38.728,13.56
2018-10-14 10:00,32.411,24.259,38.831,13.65
2018-10-14 11:00,32.415,24.338,38.493,13.27
2018-10-14 12:00,32.425,24.288,38.767,13.56
2018-10-14 13:00,32.203,24.050,38.826,13.89
2018-10-14 14:00,31.989,23.930,38.394,13.67
2018-10-14 15:00,32.041,23.961,38.493,13.71
2018-10-14 16:00,32.086,23.996,38.536,13.71
2018-10-14 17:00,32.104,24.022,38.503,13.65
2018-10-14 18:00,32.295,24.180,38.663,13.60
2018-10-14 19:00,32.325,24.214,38.645,13.54
2018-10-14 20:00,32.335,24.242,38.563,13.44
2018-10-14 21:00,32.305,24.190,38.663,13.59
2018-10-14 22:00,32.310,24.197,38.654,13.57
2018-10-14 23:00,32.331,24.235,38.579,13.46
2018-10-15 00:00,32.336,24.243,38.565,13.44
2018-10-15 01:00,32.362,24.275,38.540,13.38
2018-10-15 02:00,32.318,24.207,38.643,13.55
2018-10-15 03:00,32.341,24.239,38.605,13.48
2018-10-15 04:00,32.339,24.227,38.646,13.53
2018-10-15 05:00,32.171,24.060,38.637,13.72
2018-10-15 06:00,32.365,24.289,38.486,13.32
2018-10-15 07:00,32.382,24.322,38.417,13.23
2018-10-15 08:00,32.392,24.340,38.377,13.17
2018-10-15 09:00,32.394,24.344,38.369,13.16
2018-10-15 10:00,32.393,24.340,38.383,13.18
2018-10-15 11:00,32.350,24.260,38.553,13.41
2018-10-15 12:00,32.417,24.283,38.754,13.56
2018-10-15 13:00,32.414,24.314,38.599,13.39
2018-10-15 14:00,32.426,24.326,38.599,13.38
2018-10-15 15:00,32.425,24.344,38.511,13.28
2018-10-15 16:00,32.268,24.172,38.571,13.53
2018-10-15 17:00,32.233,24.140,38.558,13.56
2018-10-15 18:00,32.357,24.256,38.601,13.46
2018-10-15 19:00,32.344,24.241,38.611,13.48
2018-10-15 20:00,32.382,24.319,38.431,13.24
2018-10-15 21:00,32.284,24.178,38.623,13.57
2018-10-15 22:00,32.291,24.180,38.646,13.58
2018-10-15 23:00,32.307,24.193,38.655,13.58
2018-10-16 00:00,32.354,24.229,38.708,13.58
2018-10-16 01:00,32.383,24.313,38.462,13.27
2018-10-16 02:00,32.390,24.327,38.429,13.23
2018-10-16 03:00,32.445,24.366,38.502,13.25
2018-10-16 04:00,32.427,24.335,38.565,13.34
2018-10-16 05:00,32.405,24.289,38.673,13.48
2018-10-16 06:00,32.388,24.276,38.651,13.48
2018-10-16 07:00,32.316,24.174,38.782,13.71
2018-10-16 08:00,32.401,24.238,38.880,13.71
2018-10-16 09:00,32.416,24.242,38.933,13.75
2018-10-16 10:00,32.326,24.189,38.761,13.67
2018-10-16 11:00,32.379,24.248,38.740,13.58
2018-10-16 12:00,32.595,24.443,38.844,13.44
2018-10-16 13:00,32.380,24.254,38.712,13.55
2018-10-16 14:00,32.417,24.288,38.733,13.53
2018-10-16 15:00,32.265,24.180,38.524,13.48
2018-10-16 16:00,32.257,24.182,38.483,13.45
2018-10-16 17:00,32.237,24.166,38.459,13.44
2018-10-16 18:00,32.250,24.176,38.475,13.45
2018-10-16 19:00,32.251,24.179,38.463,13.43
2018-10-16 20:00,32.251,24.180,38.458,13.43
2018-10-16 21:00,32.244,24.172,38.466,13.44
2018-10-16 22:00,32.250,24.177,38.469,13.44
2018-10-16 23:00,32.278,24.218,38.414,13.34
2018-10-17 00:00,32.209,24.134,38.478,13.50
2018-10-17 01:00,32.193,24.120,38.469,13.51
2018-10-17 02:00,32.184,24.113,38.458,13.50
2018-10-17 03:00,32.180,24.112,38.442,13.49
2018-10-17 04:00,32.158,24.096,38.416,13.49
2018-10-17 05:00,32.325,24.302,38.243,13.10
2018-10-17 06:00,32.347,24.334,38.195,13.02
2018-10-17 07:00,32.350,24.329,38.236,13.06
2018-10-17 08:00,32.283,24.239,38.339,13.26
2018-10-17 09:00,32.278,24.223,38.388,13.32
2018-10-17 10:00,32.267,24.205,38.417,13.36
2018-10-17 11:00,32.182,24.130,38.371,13.41
2018-10-17 12:00,32.190,24.135,38.384,13.42
2018-10-17 13:00,32.166,24.122,38.337,13.39
2018-10-17 14:00,32.199,24.145,38.379,13.40
2018-10-17 15:00,32.230,24.179,38.368,13.35
2018-10-17 16:00,32.199,24.145,38.380,13.40
2018-10-17 17:00,32.238,24.193,38.345,13.32
2018-10-17 18:00,32.202,24.140,38.421,13.44
2018-10-17 19:00,32.230,24.175,38.389,13.37
2018-10-17 20:00,32.249,24.199,38.363,13.32
2018-10-17 21:00,32.134,24.103,38.278,13.36
2018-10-17 22:00,32.199,24.200,38.129,13.12
2018-10-17 23:00,32.284,24.321,37.966,12.84
2018-10-18 00:00,32.375,24.422,37.921,12.69
2018-10-18 01:00,32.370,24.429,37.863,12.63
2018-10-18 02:00,32.085,24.123,37.959,13.07
2018-10-18 03:00,32.099,24.148,37.908,13.00
2018-10-18 04:00,32.071,24.123,37.891,13.01
2018-10-18 05:00,32.086,24.137,37.895,13.00
2018-10-18 06:00,32.087,24.126,37.953,13.06
2018-10-18 07:00,32.119,24.157,37.958,13.03
2018-10-18 08:00,32.080,24.108,38.004,13.12
2018-10-18 09:00,32.121,24.134,38.076,13.16
2018-10-18 10:00,32.154,24.158,38.115,13.16
2018-10-18 11:00,32.143,24.160,38.058,13.11
2018-10-18 12:00,32.170,24.188,38.049,13.07
2018-10-18 13:00,32.201,24.233,37.987,12.96
2018-10-18 14:00,32.130,24.176,37.919,12.97
2018-10-18 15:00,32.101,24.176,37.789,12.86
2018-10-18 16:00,32.153,24.231,37.777,12.79
2018-10-18 17:00,32.123,24.191,37.819,12.87
2018-10-18 18:00,32.150,24.197,37.915,12.94
2018-10-18 19:00,32.204,24.228,38.028,13.00
2018-10-18 20:00,32.244,24.259,38.065,13.00
2018-10-18 21:00,32.281,24.292,38.086,12.98
2018-10-18 22:00,32.302,24.314,38.083,12.95
2018-10-18 23:00,32.308,24.328,38.043,12.90
2018-10-19 00:00,32.315,24.338,38.031,12.88
2018-10-19 01:00,32.310,24.338,38.009,12.86
2018-10-19 02:00,32.314,24.343,38.001,12.85
2018-10-19 03:00,32.310,24.344,37.981,12.83
2018-10-19 04:00,32.312,24.349,37.966,12.81
2018-10-19 05:00,32.320,24.362,37.942,12.77
2018-10-19 06:00,32.315,24.361,37.923,12.76
2018-10-19 07:00,32.315,24.367,37.898,12.73
2018-10-19 08:00,32.315,24.370,37.880,12.71
2018-10-19 09:00,32.308,24.369,37.851,12.69
2018-10-19 10:00,32.310,24.377,37.824,12.65
2018-10-19 11:00,32.306,24.382,37.785,12.62
2018-10-19 12:00,32.288,24.370,37.755,12.60
2018-10-19 13:00,32.287,24.375,37.729,12.58
2018-10-19 14:00,32.303,24.397,37.696,12.52
2018-10-19 15:00,32.322,24.427,37.647,12.44
2018-10-19 16:00,32.425,24.561,37.495,12.16
2018-10-19 17:00,32.296,24.393,37.684,12.52
2018-10-19 18:00,32.272,24.370,37.680,12.54
2018-10-19 19:00,32.286,24.385,37.678,12.52
2018-10-19 20:00,32.255,24.399,37.463,12.32
2018-10-19 21:00,32.200,24.406,37.171,12.06
2018-10-19 22:00,32.192,24.395,37.183,12.08
2018-10-19 23:00,32.240,24.441,37.193,12.03
2018-10-20 00:00,32.262,24.491,37.057,11.86
2018-10-20 01:00,32.291,24.516,37.068,11.84
2018-10-20 02:00,32.318,24.536,37.109,11.85
2018-10-20 03:00,32.283,24.517,37.027,11.80
2018-10-20 04:00,32.245,24.481,37.022,11.84
2018-10-20 05:00,32.250,24.484,37.034,11.84
2018-10-20 06:00,32.358,24.598,36.992,11.67
2018-10-20 07:00,32.297,24.536,37.004,11.76
2018-10-20 08:00,32.338,24.566,37.053,11.77
2018-10-20 09:00,32.306,24.543,37.013,11.76
2018-10-20 10:00,32.278,24.516,37.009,11.78
2018-10-20 11:00,32.282,24.518,37.022,11.79
2018-10-20 12:00,32.280,24.512,37.037,11.81
2018-10-20 13:00,32.273,24.511,37.008,11.79
2018-10-20 14:00,32.238,24.504,36.874,11.68
2018-10-20 15:00,32.258,24.524,36.871,11.65
2018-10-20 16:00,32.279,24.537,36.910,11.67
2018-10-20 17:00,32.265,24.508,36.984,11.77
2018-10-20 18:00,32.284,24.558,36.833,11.58
2018-10-20 19:00,32.302,24.585,36.789,11.51
2018-10-20 20:00,32.254,24.552,36.717,11.48
2018-10-20 21:00,32.275,24.572,36.722,11.47
2018-10-20 22:00,32.278,24.569,36.753,11.50
2018-10-20 23:00,32.317,24.595,36.807,11.51
2018-10-21 00:00,32.288,24.556,36.861,11.61
2018-10-21 01:00,32.285,24.534,36.955,11.72
2018-10-21 02:00,32.325,24.587,36.888,11.60
2018-10-21 03:00,32.353,24.621,36.860,11.53
2018-10-21 04:00,32.356,24.623,36.864,11.53
2018-10-21 05:00,32.341,24.599,36.909,11.60
2018-10-21 06:00,32.364,24.608,36.977,11.65
2018-10-21 07:00,32.318,24.537,37.102,11.84
2018-10-21 08:00,32.382,24.642,36.898,11.54
2018-10-21 09:00,32.428,24.687,36.894,11.48
2018-10-21 10:00,32.288,24.558,36.855,11.60
2018-10-21 11:00,32.243,24.522,36.812,11.60
2018-10-21 12:00,32.233,24.460,37.062,11.90
2018-10-21 13:00,32.197,24.409,37.140,12.02
2018-10-21 14:00,32.275,24.510,37.024,11.80
2018-10-21 15:00,32.493,24.791,36.697,11.19
2018-10-21 16:00,32.299,24.547,36.961,11.71
2018-10-21 17:00,32.277,24.507,37.046,11.83
2018-10-21 18:00,32.371,24.634,36.879,11.53
2018-10-21 19:00,32.336,24.592,36.920,11.62
2018-10-21 20:00,32.207,24.440,37.039,11.90
2018-10-21 21:00,32.140,24.333,37.235,12.20
2018-10-21 22:00,32.262,24.488,37.067,11.87
2018-10-21 23:00,32.083,24.290,37.168,12.19
2018-10-22 00:00,32.078,24.273,37.229,12.26
2018-10-22 01:00,32.364,24.626,36.886,11.55
2018-10-22 02:00,32.374,24.646,36.838,11.48
2018-10-22 03:00,32.395,24.681,36.766,11.38
2018-10-22 04:00,32.295,24.572,36.820,11.55
2018-10-22 05:00,32.226,24.486,36.905,11.73
2018-10-22 06:00,32.271,24.544,36.836,11.60
2018-10-22 07:00,32.275,24.552,36.820,11.58
2018-10-22 08:00,32.226,24.514,36.767,11.57
2018-10-22 09:00,32.145,24.415,36.857,11.77
2018-10-22 10:00,32.194,24.482,36.773,11.62
2018-10-22 11:00,32.184,24.452,36.870,11.74
2018-10-22 12:00,32.192,24.459,36.874,11.73
2018-10-22 13:00,32.160,24.413,36.943,11.85
2018-10-22 14:00,32.156,24.393,37.020,11.94
2018-10-22 15:00,32.375,24.686,36.640,11.26
2018-10-22 16:00,32.314,24.611,36.718,11.42
2018-10-22 17:00,32.356,24.672,36.615,11.25
2018-10-22 18:00,32.318,24.625,36.665,11.35
2018-10-22 19:00,32.365,24.676,36.642,11.27
2018-10-22 20:00,32.402,24.728,36.562,11.14
2018-10-22 21:00,32.280,24.611,36.553,11.27
2018-10-22 22:00,32.269,24.585,36.628,11.37
2018-10-22 23:00,32.250,24.542,36.748,11.52
2018-10-23 00:00,32.234,24.506,36.846,11.65
2018-10-23 01:00,32.200,24.462,36.896,11.75
2018-10-23 02:00,32.234,24.509,36.831,11.64
2018-10-23 03:00,32.188,24.475,36.775,11.63
2018-10-23 04:00,32.211,24.512,36.703,11.52
2018-10-23 05:00,32.199,24.522,36.597,11.41
2018-10-23 06:00,32.368,24.740,36.334,10.93
2018-10-23 07:00,32.339,24.710,36.345,10.97
2018-10-23 08:00,32.421,24.806,36.262,10.78
2018-10-23 09:00,32.434,24.819,36.265,10.77
2018-10-23 10:00,32.332,24.693,36.396,11.04
2018-10-23 11:00,32.367,24.736,36.346,10.94
2018-10-23 12:00,32.285,24.649,36.383,11.08
2018-10-23 13:00,32.202,24.527,36.587,11.40
2018-10-23 14:00,32.186,24.489,36.696,11.54
2018-10-23 15:00,32.193,24.477,36.792,11.64
2018-10-23 16:00,32.358,24.666,36.660,11.30
2018-10-23 17:00,32.402,24.719,36.608,11.19
2018-10-23 18:00,32.351,24.662,36.642,11.29
2018-10-23 19:00,32.339,24.637,36.706,11.38